Year,Month,Day,Hour,Minute,Value (Times are PST for temperature in C)
2017,05,23,00,00,14.30
2017,05,23,00,01,14.30
2017,05,23,00,02,14.30
2017,05,23,00,03,14.40
2017,05,23,00,04,14.40
2017,05,23,00,05,14.40
2017,05,23,00,06,14.40
2017,05,23,00,07,14.40
2017,05,23,00,08,14.50
2017,05,23,00,09,14.50
2017,05,23,00,10,14.50
2017,05,23,00,11,14.50
2017,05,23,00,12,14.40
2017,05,23,00,13,14.40
2017,05,23,00,14,14.40
2017,05,23,00,15,14.40
2017,05,23,00,16,14.40
2017,05,23,00,17,14.50
2017,05,23,00,18,14.50
2017,05,23,00,19,14.50
2017,05,23,00,20,14.50
2017,05,23,00,21,14.60
2017,05,23,00,22,14.60
2017,05,23,00,23,14.60
2017,05,23,00,24,14.60
2017,05,23,00,25,14.60
2017,05,23,00,26,14.60
2017,05,23,00,27,14.60
2017,05,23,00,28,14.60
2017,05,23,00,29,14.50
2017,05,23,00,30,14.50
2017,05,23,00,31,14.50
2017,05,23,00,32,14.50
2017,05,23,00,33,14.50
2017,05,23,00,34,14.50
2017,05,23,00,35,14.50
2017,05,23,00,36,14.50
2017,05,23,00,37,14.50
2017,05,23,00,38,14.50
2017,05,23,00,39,14.50
2017,05,23,00,40,14.50
2017,05,23,00,41,14.40
2017,05,23,00,42,14.40
2017,05,23,00,43,14.40
2017,05,23,00,44,14.40
2017,05,23,00,45,14.40
2017,05,23,00,46,14.40
2017,05,23,00,47,14.30
2017,05,23,00,48,14.30
2017,05,23,00,49,14.30
2017,05,23,00,50,14.30
2017,05,23,00,51,14.30
2017,05,23,00,52,14.20
2017,05,23,00,53,14.20
2017,05,23,00,54,14.20
2017,05,23,00,55,14.20
2017,05,23,00,56,14.10
2017,05,23,00,57,14.10
2017,05,23,00,58,14.00
2017,05,23,00,59,14.00
2017,05,23,01,00,14.00
2017,05,23,01,01,13.90
2017,05,23,01,02,13.90
2017,05,23,01,03,13.90
2017,05,23,01,04,13.80
2017,05,23,01,05,13.80
2017,05,23,01,06,13.80
2017,05,23,01,07,13.80
2017,05,23,01,08,13.80
2017,05,23,01,09,13.70
2017,05,23,01,10,13.70
2017,05,23,01,11,13.70
2017,05,23,01,12,13.70
2017,05,23,01,13,13.70
2017,05,23,01,14,13.70
2017,05,23,01,15,13.70
2017,05,23,01,16,13.70
2017,05,23,01,17,13.80
2017,05,23,01,18,13.80
2017,05,23,01,19,13.80
2017,05,23,01,20,13.80
2017,05,23,01,21,13.80
2017,05,23,01,22,13.80
2017,05,23,01,23,13.80
2017,05,23,01,24,13.80
2017,05,23,01,25,13.80
2017,05,23,01,26,13.80
2017,05,23,01,27,13.80
2017,05,23,01,28,13.80
2017,05,23,01,29,13.80
2017,05,23,01,30,13.80
2017,05,23,01,31,13.80
2017,05,23,01,32,13.80
2017,05,23,01,33,13.80
2017,05,23,01,34,13.80
2017,05,23,01,35,13.70
2017,05,23,01,36,13.70
2017,05,23,01,37,13.70
2017,05,23,01,38,13.70
2017,05,23,01,39,13.60
2017,05,23,01,40,13.60
2017,05,23,01,41,13.60
2017,05,23,01,42,13.60
2017,05,23,01,43,13.50
2017,05,23,01,44,13.50
2017,05,23,01,45,13.50
2017,05,23,01,46,13.50
2017,05,23,01,47,13.50
2017,05,23,01,48,13.40
2017,05,23,01,49,13.40
2017,05,23,01,50,13.40
2017,05,23,01,51,13.40
2017,05,23,01,52,13.40
2017,05,23,01,53,13.40
2017,05,23,01,54,13.30
2017,05,23,01,55,13.30
2017,05,23,01,56,13.30
2017,05,23,01,57,13.30
2017,05,23,01,58,13.30
2017,05,23,01,59,13.30
2017,05,23,02,00,13.20
2017,05,23,02,01,13.20
2017,05,23,02,02,13.20
2017,05,23,02,03,13.20
2017,05,23,02,04,13.20
2017,05,23,02,05,13.10
2017,05,23,02,06,13.10
2017,05,23,02,07,13.10
2017,05,23,02,08,13.10
2017,05,23,02,09,13.10
2017,05,23,02,10,13.00
2017,05,23,02,11,13.00
2017,05,23,02,12,13.00
2017,05,23,02,13,13.00
2017,05,23,02,14,12.90
2017,05,23,02,15,12.90
2017,05,23,02,16,12.90
2017,05,23,02,17,12.90
2017,05,23,02,18,12.90
2017,05,23,02,19,12.90
2017,05,23,02,20,12.90
2017,05,23,02,21,12.90
2017,05,23,02,22,12.90
2017,05,23,02,23,12.90
2017,05,23,02,24,12.90
2017,05,23,02,25,12.90
2017,05,23,02,26,12.90
2017,05,23,02,27,12.80
2017,05,23,02,28,12.80
2017,05,23,02,29,12.70
2017,05,23,02,30,12.60
2017,05,23,02,31,12.50
2017,05,23,02,32,12.40
2017,05,23,02,33,12.30
2017,05,23,02,34,12.30
2017,05,23,02,35,12.20
2017,05,23,02,36,12.20
2017,05,23,02,37,12.10
2017,05,23,02,38,12.10
2017,05,23,02,39,12.10
2017,05,23,02,40,12.00
2017,05,23,02,41,12.00
2017,05,23,02,42,11.90
2017,05,23,02,43,11.80
2017,05,23,02,44,11.80
2017,05,23,02,45,11.70
2017,05,23,02,46,11.60
2017,05,23,02,47,11.50
2017,05,23,02,48,11.40
2017,05,23,02,49,11.30
2017,05,23,02,50,11.30
2017,05,23,02,51,11.20
2017,05,23,02,52,11.10
2017,05,23,02,53,11.10
2017,05,23,02,54,11.10
2017,05,23,02,55,11.10
2017,05,23,02,56,11.10
2017,05,23,02,57,11.10
2017,05,23,02,58,11.10
2017,05,23,02,59,11.10
2017,05,23,03,00,11.10
2017,05,23,03,01,11.10
2017,05,23,03,02,11.10
2017,05,23,03,03,11.10
2017,05,23,03,04,11.20
2017,05,23,03,05,11.20
2017,05,23,03,06,11.20
2017,05,23,03,07,11.30
2017,05,23,03,08,11.30
2017,05,23,03,09,11.30
2017,05,23,03,10,11.30
2017,05,23,03,11,11.30
2017,05,23,03,12,11.30
2017,05,23,03,13,11.30
2017,05,23,03,14,11.30
2017,05,23,03,15,11.30
2017,05,23,03,16,11.30
2017,05,23,03,17,11.30
2017,05,23,03,18,11.30
2017,05,23,03,19,11.30
2017,05,23,03,20,11.30
2017,05,23,03,21,11.20
2017,05,23,03,22,11.20
2017,05,23,03,23,11.10
2017,05,23,03,24,11.10
2017,05,23,03,25,11.10
2017,05,23,03,26,11.10
2017,05,23,03,27,11.10
2017,05,23,03,28,11.10
2017,05,23,03,29,11.10
2017,05,23,03,30,11.10
2017,05,23,03,31,11.10
2017,05,23,03,32,11.10
2017,05,23,03,33,11.10
2017,05,23,03,34,11.10
2017,05,23,03,35,11.10
2017,05,23,03,36,11.10
2017,05,23,03,37,11.20
2017,05,23,03,38,11.20
2017,05,23,03,39,11.20
2017,05,23,03,40,11.20
2017,05,23,03,41,11.20
2017,05,23,03,42,11.20
2017,05,23,03,43,11.20
2017,05,23,03,44,11.20
2017,05,23,03,45,11.20
2017,05,23,03,46,11.20
2017,05,23,03,47,11.20
2017,05,23,03,48,11.30
2017,05,23,03,49,11.30
2017,05,23,03,50,11.30
2017,05,23,03,51,11.30
2017,05,23,03,52,11.30
2017,05,23,03,53,11.30
2017,05,23,03,54,11.30
2017,05,23,03,55,11.30
2017,05,23,03,56,11.30
2017,05,23,03,57,11.30
2017,05,23,03,58,11.30
2017,05,23,03,59,11.40
2017,05,23,04,00,11.40
2017,05,23,04,01,11.40
2017,05,23,04,02,11.40
2017,05,23,04,03,11.40
2017,05,23,04,04,11.40
2017,05,23,04,05,11.40
2017,05,23,04,06,11.40
2017,05,23,04,07,11.40
2017,05,23,04,08,11.40
2017,05,23,04,09,11.40
2017,05,23,04,10,11.50
2017,05,23,04,11,11.50
2017,05,23,04,12,11.50
2017,05,23,04,13,11.60
2017,05,23,04,14,11.60
2017,05,23,04,15,11.70
2017,05,23,04,16,11.70
2017,05,23,04,17,11.70
2017,05,23,04,18,11.70
2017,05,23,04,19,11.70
2017,05,23,04,20,11.70
2017,05,23,04,21,11.70
2017,05,23,04,22,11.80
2017,05,23,04,23,11.80
2017,05,23,04,24,11.90
2017,05,23,04,25,11.90
2017,05,23,04,26,11.90
2017,05,23,04,27,11.90
2017,05,23,04,28,12.00
2017,05,23,04,29,12.00
2017,05,23,04,30,12.00
2017,05,23,04,31,12.00
2017,05,23,04,32,12.00
2017,05,23,04,33,11.90
2017,05,23,04,34,11.90
2017,05,23,04,35,11.90
2017,05,23,04,36,12.00
2017,05,23,04,37,12.00
2017,05,23,04,38,12.00
2017,05,23,04,39,12.00
2017,05,23,04,40,12.00
2017,05,23,04,41,12.00
2017,05,23,04,42,12.00
2017,05,23,04,43,12.00
2017,05,23,04,44,12.00
2017,05,23,04,45,12.00
2017,05,23,04,46,12.00
2017,05,23,04,47,11.90
2017,05,23,04,48,11.90
2017,05,23,04,49,11.90
2017,05,23,04,50,11.90
2017,05,23,04,51,11.90
2017,05,23,04,52,11.80
2017,05,23,04,53,11.80
2017,05,23,04,54,11.80
2017,05,23,04,55,11.70
2017,05,23,04,56,11.60
2017,05,23,04,57,11.60
2017,05,23,04,58,11.50
2017,05,23,04,59,11.30
2017,05,23,05,00,11.20
2017,05,23,05,01,11.00
2017,05,23,05,02,10.90
2017,05,23,05,03,10.80
2017,05,23,05,04,10.70
2017,05,23,05,05,10.60
2017,05,23,05,06,10.60
2017,05,23,05,07,10.50
2017,05,23,05,08,10.50
2017,05,23,05,09,10.40
2017,05,23,05,10,10.40
2017,05,23,05,11,10.40
2017,05,23,05,12,10.40
2017,05,23,05,13,10.30
2017,05,23,05,14,10.30
2017,05,23,05,15,10.30
2017,05,23,05,16,10.30
2017,05,23,05,17,10.30
2017,05,23,05,18,10.20
2017,05,23,05,19,10.20
2017,05,23,05,20,10.20
2017,05,23,05,21,10.30
2017,05,23,05,22,10.30
2017,05,23,05,23,10.30
2017,05,23,05,24,10.30
2017,05,23,05,25,10.40
2017,05,23,05,26,10.40
2017,05,23,05,27,10.40
2017,05,23,05,28,10.40
2017,05,23,05,29,10.40
2017,05,23,05,30,10.30
2017,05,23,05,31,10.30
2017,05,23,05,32,10.30
2017,05,23,05,33,10.30
2017,05,23,05,34,10.30
2017,05,23,05,35,10.30
2017,05,23,05,36,10.30
2017,05,23,05,37,10.40
2017,05,23,05,38,10.40
2017,05,23,05,39,10.40
2017,05,23,05,40,10.40
2017,05,23,05,41,10.40
2017,05,23,05,42,10.40
2017,05,23,05,43,10.30
2017,05,23,05,44,10.30
2017,05,23,05,45,10.30
2017,05,23,05,46,10.20
2017,05,23,05,47,10.20
2017,05,23,05,48,10.20
2017,05,23,05,49,10.20
2017,05,23,05,50,10.10
2017,05,23,05,51,10.10
2017,05,23,05,52,10.10
2017,05,23,05,53,10.10
2017,05,23,05,54,10.00
2017,05,23,05,55,10.00
2017,05,23,05,56,10.00
2017,05,23,05,57,10.00
2017,05,23,05,58,9.90
2017,05,23,05,59,9.90
2017,05,23,06,00,9.90
2017,05,23,06,01,9.90
2017,05,23,06,02,9.90
2017,05,23,06,03,9.90
2017,05,23,06,04,9.90
2017,05,23,06,05,9.90
2017,05,23,06,06,9.90
2017,05,23,06,07,9.90
2017,05,23,06,08,9.90
2017,05,23,06,09,10.00
2017,05,23,06,10,10.00
2017,05,23,06,11,10.00
2017,05,23,06,12,10.00
2017,05,23,06,13,10.10
2017,05,23,06,14,10.10
2017,05,23,06,15,10.10
2017,05,23,06,16,10.10
2017,05,23,06,17,10.20
2017,05,23,06,18,10.20
2017,05,23,06,19,10.20
2017,05,23,06,20,10.20
2017,05,23,06,21,10.20
2017,05,23,06,22,10.20
2017,05,23,06,23,10.20
2017,05,23,06,24,10.30
2017,05,23,06,25,10.30
2017,05,23,06,26,10.30
2017,05,23,06,27,10.30
2017,05,23,06,28,10.40
2017,05,23,06,29,10.40
2017,05,23,06,30,10.40
2017,05,23,06,31,10.50
2017,05,23,06,32,10.50
2017,05,23,06,33,10.60
2017,05,23,06,34,10.70
2017,05,23,06,35,10.70
2017,05,23,06,36,10.70
2017,05,23,06,37,10.80
2017,05,23,06,38,10.80
2017,05,23,06,39,10.90
2017,05,23,06,40,11.00
2017,05,23,06,41,11.10
2017,05,23,06,42,11.10
2017,05,23,06,43,11.20
2017,05,23,06,44,11.20
2017,05,23,06,45,11.30
2017,05,23,06,46,11.30
2017,05,23,06,47,11.30
2017,05,23,06,48,11.30
2017,05,23,06,49,11.30
2017,05,23,06,50,11.30
2017,05,23,06,51,11.30
2017,05,23,06,52,11.30
2017,05,23,06,53,11.40
2017,05,23,06,54,11.50
2017,05,23,06,55,11.50
2017,05,23,06,56,11.60
2017,05,23,06,57,11.70
2017,05,23,06,58,11.80
2017,05,23,06,59,11.90
2017,05,23,07,00,12.00
2017,05,23,07,01,12.20
2017,05,23,07,02,12.30
2017,05,23,07,03,12.40
2017,05,23,07,04,12.60
2017,05,23,07,05,12.70
2017,05,23,07,06,12.80
2017,05,23,07,07,13.00
2017,05,23,07,08,13.10
2017,05,23,07,09,13.30
2017,05,23,07,10,13.40
2017,05,23,07,11,13.60
2017,05,23,07,12,13.70
2017,05,23,07,13,13.80
2017,05,23,07,14,14.00
2017,05,23,07,15,14.10
2017,05,23,07,16,14.20
2017,05,23,07,17,14.30
2017,05,23,07,18,14.40
2017,05,23,07,19,14.50
2017,05,23,07,20,14.60
2017,05,23,07,21,14.70
2017,05,23,07,22,14.70
2017,05,23,07,23,14.80
2017,05,23,07,24,14.90
2017,05,23,07,25,14.90
2017,05,23,07,26,15.00
2017,05,23,07,27,15.10
2017,05,23,07,28,15.10
2017,05,23,07,29,15.20
2017,05,23,07,30,15.30
2017,05,23,07,31,15.30
2017,05,23,07,32,15.40
2017,05,23,07,33,15.40
2017,05,23,07,34,15.50
2017,05,23,07,35,15.50
2017,05,23,07,36,15.60
2017,05,23,07,37,15.70
2017,05,23,07,38,15.70
2017,05,23,07,39,15.80
2017,05,23,07,40,15.80
2017,05,23,07,41,15.90
2017,05,23,07,42,16.00
2017,05,23,07,43,16.10
2017,05,23,07,44,16.10
2017,05,23,07,45,16.20
2017,05,23,07,46,16.30
2017,05,23,07,47,16.40
2017,05,23,07,48,16.50
2017,05,23,07,49,16.50
2017,05,23,07,50,16.60
2017,05,23,07,51,16.70
2017,05,23,07,52,16.80
2017,05,23,07,53,16.90
2017,05,23,07,54,17.00
2017,05,23,07,55,17.00
2017,05,23,07,56,17.10
2017,05,23,07,57,17.20
2017,05,23,07,58,17.30
2017,05,23,07,59,17.40
2017,05,23,08,00,17.50
2017,05,23,08,01,17.60
2017,05,23,08,02,17.60
2017,05,23,08,03,17.70
2017,05,23,08,04,17.70
2017,05,23,08,05,17.80
2017,05,23,08,06,17.90
2017,05,23,08,07,17.90
2017,05,23,08,08,18.00
2017,05,23,08,09,18.10
2017,05,23,08,10,18.10
2017,05,23,08,11,18.20
2017,05,23,08,12,18.30
2017,05,23,08,13,18.40
2017,05,23,08,14,18.50
2017,05,23,08,15,18.60
2017,05,23,08,16,18.70
2017,05,23,08,17,18.90
2017,05,23,08,18,19.00
2017,05,23,08,19,19.10
2017,05,23,08,20,19.20
2017,05,23,08,21,19.30
2017,05,23,08,22,19.30
2017,05,23,08,23,19.40
2017,05,23,08,24,19.40
2017,05,23,08,25,19.40
2017,05,23,08,26,19.40
2017,05,23,08,27,19.40
2017,05,23,08,28,19.40
2017,05,23,08,29,19.40
2017,05,23,08,30,19.40
2017,05,23,08,31,19.40
2017,05,23,08,32,19.40
2017,05,23,08,33,19.50
2017,05,23,08,34,19.50
2017,05,23,08,35,19.60
2017,05,23,08,36,19.60
2017,05,23,08,37,19.70
2017,05,23,08,38,19.80
2017,05,23,08,39,19.80
2017,05,23,08,40,19.90
2017,05,23,08,41,20.00
2017,05,23,08,42,20.00
2017,05,23,08,43,20.10
2017,05,23,08,44,20.20
2017,05,23,08,45,20.30
2017,05,23,08,46,20.30
2017,05,23,08,47,20.40
2017,05,23,08,48,20.40
2017,05,23,08,49,20.40
2017,05,23,08,50,20.40
2017,05,23,08,51,20.40
2017,05,23,08,52,20.30
2017,05,23,08,53,20.20
2017,05,23,08,54,20.10
2017,05,23,08,55,20.00
2017,05,23,08,56,19.80
2017,05,23,08,57,19.70
2017,05,23,08,58,19.60
2017,05,23,08,59,19.50
2017,05,23,09,00,19.30
2017,05,23,09,01,19.20
2017,05,23,09,02,19.20
2017,05,23,09,03,19.20
2017,05,23,09,04,19.20
2017,05,23,09,05,19.20
2017,05,23,09,06,19.20
2017,05,23,09,07,19.20
2017,05,23,09,08,19.20
2017,05,23,09,09,19.30
2017,05,23,09,10,19.30
2017,05,23,09,11,19.30
2017,05,23,09,12,19.30
2017,05,23,09,13,19.40
2017,05,23,09,14,19.40
2017,05,23,09,15,19.40
2017,05,23,09,16,19.30
2017,05,23,09,17,19.30
2017,05,23,09,18,19.30
2017,05,23,09,19,19.30
2017,05,23,09,20,19.30
2017,05,23,09,21,19.30
2017,05,23,09,22,19.40
2017,05,23,09,23,19.40
2017,05,23,09,24,19.40
2017,05,23,09,25,19.40
2017,05,23,09,26,19.40
2017,05,23,09,27,19.40
2017,05,23,09,28,19.40
2017,05,23,09,29,19.40
2017,05,23,09,30,19.40
2017,05,23,09,31,19.30
2017,05,23,09,32,19.30
2017,05,23,09,33,19.30
2017,05,23,09,34,19.30
2017,05,23,09,35,19.30
2017,05,23,09,36,19.30
2017,05,23,09,37,19.40
2017,05,23,09,38,19.40
2017,05,23,09,39,19.50
2017,05,23,09,40,19.50
2017,05,23,09,41,19.60
2017,05,23,09,42,19.70
2017,05,23,09,43,19.70
2017,05,23,09,44,19.70
2017,05,23,09,45,19.70
2017,05,23,09,46,19.70
2017,05,23,09,47,19.70
2017,05,23,09,48,19.70
2017,05,23,09,49,19.70
2017,05,23,09,50,19.80
2017,05,23,09,51,19.80
2017,05,23,09,52,19.80
2017,05,23,09,53,19.80
2017,05,23,09,54,19.90
2017,05,23,09,55,19.90
2017,05,23,09,56,19.90
2017,05,23,09,57,19.90
2017,05,23,09,58,20.00
2017,05,23,09,59,20.00
2017,05,23,10,00,20.10
2017,05,23,10,01,20.20
2017,05,23,10,02,20.20
2017,05,23,10,03,20.30
2017,05,23,10,04,20.40
2017,05,23,10,05,20.50
2017,05,23,10,06,20.50
2017,05,23,10,07,20.60
2017,05,23,10,08,20.70
2017,05,23,10,09,20.70
2017,05,23,10,10,20.80
2017,05,23,10,11,20.80
2017,05,23,10,12,20.80
2017,05,23,10,13,20.80
2017,05,23,10,14,20.80
2017,05,23,10,15,20.90
2017,05,23,10,16,21.00
2017,05,23,10,17,21.10
2017,05,23,10,18,21.20
2017,05,23,10,19,21.30
2017,05,23,10,20,21.40
2017,05,23,10,21,21.50
2017,05,23,10,22,21.60
2017,05,23,10,23,21.80
2017,05,23,10,24,21.90
2017,05,23,10,25,22.00
2017,05,23,10,26,22.00
2017,05,23,10,27,22.00
2017,05,23,10,28,22.00
2017,05,23,10,29,22.10
2017,05,23,10,30,22.20
2017,05,23,10,31,22.30
2017,05,23,10,32,22.30
2017,05,23,10,33,22.40
2017,05,23,10,34,22.40
2017,05,23,10,35,22.30
2017,05,23,10,36,22.00
2017,05,23,10,37,21.70
2017,05,23,10,38,21.30
2017,05,23,10,39,20.90
2017,05,23,10,40,20.60
2017,05,23,10,41,20.40
2017,05,23,10,42,20.30
2017,05,23,10,43,20.20
2017,05,23,10,44,20.20
2017,05,23,10,45,20.20
2017,05,23,10,46,20.20
2017,05,23,10,47,20.20
2017,05,23,10,48,20.10
2017,05,23,10,49,20.10
2017,05,23,10,50,20.10
2017,05,23,10,51,20.10
2017,05,23,10,52,20.00
2017,05,23,10,53,19.80
2017,05,23,10,54,19.70
2017,05,23,10,55,19.50
2017,05,23,10,56,19.30
2017,05,23,10,57,19.20
2017,05,23,10,58,19.10
2017,05,23,10,59,18.90
2017,05,23,11,00,18.60
2017,05,23,11,01,18.40
2017,05,23,11,02,18.30
2017,05,23,11,03,18.10
2017,05,23,11,04,18.00
2017,05,23,11,05,17.90
2017,05,23,11,06,17.80
2017,05,23,11,07,17.80
2017,05,23,11,08,17.80
2017,05,23,11,09,17.90
2017,05,23,11,10,18.10
2017,05,23,11,11,18.30
2017,05,23,11,12,18.50
2017,05,23,11,13,18.80
2017,05,23,11,14,19.10
2017,05,23,11,15,19.40
2017,05,23,11,16,19.50
2017,05,23,11,17,19.60
2017,05,23,11,18,19.70
2017,05,23,11,19,19.60
2017,05,23,11,20,19.60
2017,05,23,11,21,19.70
2017,05,23,11,22,19.90
2017,05,23,11,23,20.00
2017,05,23,11,24,20.20
2017,05,23,11,25,20.40
2017,05,23,11,26,20.70
2017,05,23,11,27,20.90
2017,05,23,11,28,21.10
2017,05,23,11,29,21.20
2017,05,23,11,30,21.40
2017,05,23,11,31,21.60
2017,05,23,11,32,21.80
2017,05,23,11,33,21.90
2017,05,23,11,34,22.00
2017,05,23,11,35,22.20
2017,05,23,11,36,22.40
2017,05,23,11,37,22.60
2017,05,23,11,38,22.60
2017,05,23,11,39,22.60
2017,05,23,11,40,22.50
2017,05,23,11,41,22.30
2017,05,23,11,42,22.20
2017,05,23,11,43,22.00
2017,05,23,11,44,21.80
2017,05,23,11,45,21.80
2017,05,23,11,46,21.80
2017,05,23,11,47,21.90
2017,05,23,11,48,21.90
2017,05,23,11,49,21.70
2017,05,23,11,50,21.70
2017,05,23,11,51,21.80
2017,05,23,11,52,21.90
2017,05,23,11,53,21.90
2017,05,23,11,54,22.00
2017,05,23,11,55,22.10
2017,05,23,11,56,22.20
2017,05,23,11,57,22.30
2017,05,23,11,58,22.40
2017,05,23,11,59,22.50
2017,05,23,12,00,22.50
2017,05,23,12,01,22.60
2017,05,23,12,02,22.60
2017,05,23,12,03,22.60
2017,05,23,12,04,22.60
2017,05,23,12,05,22.60
2017,05,23,12,06,22.60
2017,05,23,12,07,22.50
2017,05,23,12,08,22.40
2017,05,23,12,09,22.40
2017,05,23,12,10,22.30
2017,05,23,12,11,22.30
2017,05,23,12,12,22.20
2017,05,23,12,13,22.20
2017,05,23,12,14,22.20
2017,05,23,12,15,22.20
2017,05,23,12,16,22.20
2017,05,23,12,17,22.20
2017,05,23,12,18,22.30
2017,05,23,12,19,22.40
2017,05,23,12,20,22.40
2017,05,23,12,21,22.50
2017,05,23,12,22,22.60
2017,05,23,12,23,22.60
2017,05,23,12,24,22.70
2017,05,23,12,25,22.70
2017,05,23,12,26,22.70
2017,05,23,12,27,22.60
2017,05,23,12,28,22.70
2017,05,23,12,29,22.70
2017,05,23,12,30,22.70
2017,05,23,12,31,22.80
2017,05,23,12,32,22.90
2017,05,23,12,33,22.90
2017,05,23,12,34,22.90
2017,05,23,12,35,22.80
2017,05,23,12,36,22.70
2017,05,23,12,37,22.60
2017,05,23,12,38,22.70
2017,05,23,12,39,22.70
2017,05,23,12,40,22.70
2017,05,23,12,41,22.60
2017,05,23,12,42,22.60
2017,05,23,12,43,22.50
2017,05,23,12,44,22.40
2017,05,23,12,45,22.40
2017,05,23,12,46,22.40
2017,05,23,12,47,22.30
2017,05,23,12,48,22.30
2017,05,23,12,49,22.30
2017,05,23,12,50,22.30
2017,05,23,12,51,22.30
2017,05,23,12,52,22.30
2017,05,23,12,53,22.40
2017,05,23,12,54,22.50
2017,05,23,12,55,22.50
2017,05,23,12,56,22.50
2017,05,23,12,57,22.50
2017,05,23,12,58,22.50
2017,05,23,12,59,22.50
2017,05,23,13,00,22.60
2017,05,23,13,01,22.60
2017,05,23,13,02,22.70
2017,05,23,13,03,22.70
2017,05,23,13,04,22.80
2017,05,23,13,05,22.80
2017,05,23,13,06,23.00
2017,05,23,13,07,23.10
2017,05,23,13,08,23.10
2017,05,23,13,09,23.10
2017,05,23,13,10,23.10
2017,05,23,13,11,23.30
2017,05,23,13,12,23.40
2017,05,23,13,13,23.50
2017,05,23,13,14,23.60
2017,05,23,13,15,23.70
2017,05,23,13,16,23.60
2017,05,23,13,17,23.60
2017,05,23,13,18,23.60
2017,05,23,13,19,23.70
2017,05,23,13,20,23.70
2017,05,23,13,21,23.80
2017,05,23,13,22,23.80
2017,05,23,13,23,23.80
2017,05,23,13,24,23.70
2017,05,23,13,25,23.70
2017,05,23,13,26,23.70
2017,05,23,13,27,23.50
2017,05,23,13,28,23.30
2017,05,23,13,29,23.20
2017,05,23,13,30,23.10
2017,05,23,13,31,23.00
2017,05,23,13,32,22.90
2017,05,23,13,33,22.90
2017,05,23,13,34,22.90
2017,05,23,13,35,22.80
2017,05,23,13,36,22.80
2017,05,23,13,37,22.80
2017,05,23,13,38,22.80
2017,05,23,13,39,22.80
2017,05,23,13,40,22.70
2017,05,23,13,41,22.70
2017,05,23,13,42,22.70
2017,05,23,13,43,22.60
2017,05,23,13,44,22.50
2017,05,23,13,45,22.50
2017,05,23,13,46,22.50
2017,05,23,13,47,22.60
2017,05,23,13,48,22.60
2017,05,23,13,49,22.70
2017,05,23,13,50,22.80
2017,05,23,13,51,22.80
2017,05,23,13,52,22.80
2017,05,23,13,53,22.80
2017,05,23,13,54,22.80
2017,05,23,13,55,22.70
2017,05,23,13,56,22.70
2017,05,23,13,57,22.60
2017,05,23,13,58,22.60
2017,05,23,13,59,22.60
2017,05,23,14,00,22.60
2017,05,23,14,01,22.60
2017,05,23,14,02,22.50
2017,05,23,14,03,22.50
2017,05,23,14,04,22.40
2017,05,23,14,05,22.50
2017,05,23,14,06,22.50
2017,05,23,14,07,22.40
2017,05,23,14,08,22.30
2017,05,23,14,09,22.30
2017,05,23,14,10,22.40
2017,05,23,14,11,22.50
2017,05,23,14,12,22.50
2017,05,23,14,13,22.60
2017,05,23,14,14,22.60
2017,05,23,14,15,22.60
2017,05,23,14,16,22.60
2017,05,23,14,17,22.50
2017,05,23,14,18,22.50
2017,05,23,14,19,22.60
2017,05,23,14,20,22.60
2017,05,23,14,21,22.60
2017,05,23,14,22,22.60
2017,05,23,14,23,22.60
2017,05,23,14,24,22.60
2017,05,23,14,25,22.60
2017,05,23,14,26,22.70
2017,05,23,14,27,22.70
2017,05,23,14,28,22.80
2017,05,23,14,29,22.80
2017,05,23,14,30,22.80
2017,05,23,14,31,22.70
2017,05,23,14,32,22.60
2017,05,23,14,33,22.60
2017,05,23,14,34,22.60
2017,05,23,14,35,22.60
2017,05,23,14,36,22.60
2017,05,23,14,37,22.70
2017,05,23,14,38,22.70
2017,05,23,14,39,22.80
2017,05,23,14,40,22.80
2017,05,23,14,41,22.80
2017,05,23,14,42,22.70
2017,05,23,14,43,22.70
2017,05,23,14,44,22.60
2017,05,23,14,45,22.50
2017,05,23,14,46,22.50
2017,05,23,14,47,22.50
2017,05,23,14,48,22.30
2017,05,23,14,49,22.30
2017,05,23,14,50,22.20
2017,05,23,14,51,22.10
2017,05,23,14,52,22.00
2017,05,23,14,53,21.80
2017,05,23,14,54,21.70
2017,05,23,14,55,21.70
2017,05,23,14,56,21.70
2017,05,23,14,57,21.80
2017,05,23,14,58,21.70
2017,05,23,14,59,21.50
2017,05,23,15,00,21.30
2017,05,23,15,01,21.30
2017,05,23,15,02,21.30
2017,05,23,15,03,21.30
2017,05,23,15,04,21.30
2017,05,23,15,05,21.30
2017,05,23,15,06,21.30
2017,05,23,15,07,21.30
2017,05,23,15,08,21.20
2017,05,23,15,09,21.10
2017,05,23,15,10,21.00
2017,05,23,15,11,21.00
2017,05,23,15,12,21.10
2017,05,23,15,13,21.10
2017,05,23,15,14,21.20
2017,05,23,15,15,21.20
2017,05,23,15,16,21.20
2017,05,23,15,17,21.10
2017,05,23,15,18,21.00
2017,05,23,15,19,21.00
2017,05,23,15,20,20.90
2017,05,23,15,21,20.80
2017,05,23,15,22,20.80
2017,05,23,15,23,20.80
2017,05,23,15,24,20.80
2017,05,23,15,25,20.70
2017,05,23,15,26,20.70
2017,05,23,15,27,20.60
2017,05,23,15,28,20.60
2017,05,23,15,29,20.60
2017,05,23,15,30,20.50
2017,05,23,15,31,20.50
2017,05,23,15,32,20.50
2017,05,23,15,33,20.50
2017,05,23,15,34,20.50
2017,05,23,15,35,20.50
2017,05,23,15,36,20.60
2017,05,23,15,37,20.70
2017,05,23,15,38,20.70
2017,05,23,15,39,20.70
2017,05,23,15,40,20.70
2017,05,23,15,41,20.60
2017,05,23,15,42,20.50
2017,05,23,15,43,20.40
2017,05,23,15,44,20.40
2017,05,23,15,45,20.40
2017,05,23,15,46,20.40
2017,05,23,15,47,20.30
2017,05,23,15,48,20.30
2017,05,23,15,49,20.30
2017,05,23,15,50,20.30
2017,05,23,15,51,20.20
2017,05,23,15,52,20.20
2017,05,23,15,53,20.20
2017,05,23,15,54,20.20
2017,05,23,15,55,20.20
2017,05,23,15,56,20.20
2017,05,23,15,57,20.20
2017,05,23,15,58,20.30
2017,05,23,15,59,20.30
2017,05,23,16,00,20.30
2017,05,23,16,01,20.20
2017,05,23,16,02,20.20
2017,05,23,16,03,20.20
2017,05,23,16,04,20.10
2017,05,23,16,05,20.00
2017,05,23,16,06,19.90
2017,05,23,16,07,19.80
2017,05,23,16,08,19.70
2017,05,23,16,09,19.70
2017,05,23,16,10,19.80
2017,05,23,16,11,19.80
2017,05,23,16,12,19.80
2017,05,23,16,13,19.90
2017,05,23,16,14,19.80
2017,05,23,16,15,19.80
2017,05,23,16,16,19.80
2017,05,23,16,17,19.80
2017,05,23,16,18,19.70
2017,05,23,16,19,19.60
2017,05,23,16,20,19.50
2017,05,23,16,21,19.40
2017,05,23,16,22,19.30
2017,05,23,16,23,19.30
2017,05,23,16,24,19.20
2017,05,23,16,25,19.20
2017,05,23,16,26,19.20
2017,05,23,16,27,19.20
2017,05,23,16,28,19.10
2017,05,23,16,29,19.10
2017,05,23,16,30,19.10
2017,05,23,16,31,19.10
2017,05,23,16,32,19.10
2017,05,23,16,33,19.10
2017,05,23,16,34,19.10
2017,05,23,16,35,19.10
2017,05,23,16,36,19.10
2017,05,23,16,37,19.00
2017,05,23,16,38,19.00
2017,05,23,16,39,18.90
2017,05,23,16,40,18.80
2017,05,23,16,41,18.70
2017,05,23,16,42,18.70
2017,05,23,16,43,18.70
2017,05,23,16,44,18.70
2017,05,23,16,45,18.70
2017,05,23,16,46,18.70
2017,05,23,16,47,18.70
2017,05,23,16,48,18.70
2017,05,23,16,49,18.70
2017,05,23,16,50,18.70
2017,05,23,16,51,18.60
2017,05,23,16,52,18.50
2017,05,23,16,53,18.50
2017,05,23,16,54,18.40
2017,05,23,16,55,18.30
2017,05,23,16,56,18.20
2017,05,23,16,57,18.00
2017,05,23,16,58,17.90
2017,05,23,16,59,17.90
2017,05,23,17,00,17.80
2017,05,23,17,01,17.70
2017,05,23,17,02,17.50
2017,05,23,17,03,17.40
2017,05,23,17,04,17.30
2017,05,23,17,05,17.30
2017,05,23,17,06,17.20
2017,05,23,17,07,17.20
2017,05,23,17,08,17.10
2017,05,23,17,09,17.10
2017,05,23,17,10,17.20
2017,05,23,17,11,17.20
2017,05,23,17,12,17.30
2017,05,23,17,13,17.40
2017,05,23,17,14,17.40
2017,05,23,17,15,17.40
2017,05,23,17,16,17.40
2017,05,23,17,17,17.30
2017,05,23,17,18,17.30
2017,05,23,17,19,17.30